Find Calsphere IV

NORAD ID: 2826 Int'l Des: 1967-053 Owner: NRL Country: US operational
LEOCIRCULAR

Aktuelle Ansicht

3D-Globus wird geladen...

Über Calsphere IV

Beschreibung wird geladen...

Nächste Überflüge

Passes for default location (London). Set your location on the main map for personalized predictions.

Höhenverlauf

Loading altitude history...

Zweizeiliger Elementsatz

1 02826U 67053A 26146.24976348 .00009067 00000-0 12830-2 0 9999
2 02826 69.9161 92.0512 0001297 261.1267 98.9734 14.77352505 62990
Epoch: 26. Mai 2026 • Age: 9 hours

Aktueller Status

Höhe 661.2 km
Geschwindigkeit 7.53 km/s
Subsatellitenpunkt -65.89°S, 147.89°W
Typ other

Most Searched